When you browse on this site, cookies collect data to enhance your experience and personalize the content and advertising you see.
Visit our Privacy Policy to learn more. By continuing to use the site, you agree to this use of cookies and data.
  • Em Portugal
  • Lista de países
  • Para 7 dias
  • Temperatura da água
  • Mapas de satélite
  • Mapa do tempo
  • Widgets de tempo
  • user-avatar
    Iniciar Sessão

    Previsão horária em Sierpnica

    Hoje, 25 Março, Segunda-feira

    Tempo Temperatura Precipitação Vento Pressão Humidade
    00:00 +5°C° 0 mm 1 m/s 710 mmHg 80%
    01:00 +4°C° 0 mm 2 m/s 709 mmHg 84%
    02:00 +3°C° 0 mm 2 m/s 709 mmHg 85%
    03:00 +3°C° 0 mm 2 m/s 708 mmHg 86%
    04:00 +3°C° 0 mm 1 m/s 708 mmHg 88%
    05:00 +2°C° 0 mm 2 m/s 707 mmHg 87%
    06:00 +2°C° 0 mm 2 m/s 707 mmHg 85%
    07:00 +2°C° 0 mm 2 m/s 707 mmHg 83%
    08:00 +2°C° 0 mm 3 m/s 706 mmHg 73%
    09:00 +2°C° 0 mm 5 m/s 706 mmHg 64%
    10:00 +4°C° 0 mm 6 m/s 706 mmHg 55%
    11:00 +3°C° 0.3 mm 6 m/s 706 mmHg 57%
    12:00 +3°C° 0.3 mm 7 m/s 706 mmHg 59%
    13:00 +3°C° 0.3 mm 7 m/s 706 mmHg 61%
    14:00 +3°C° 0.2 mm 7 m/s 706 mmHg 61%
    15:00 +2°C° 0.2 mm 6 m/s 706 mmHg 62%
    16:00 +2°C° 0.2 mm 6 m/s 706 mmHg 62%
    17:00 +1°C° 0 mm 5 m/s 707 mmHg 67%
    18:00 0°C° 0 mm 4 m/s 707 mmHg 72%
    19:00 0°C° 0 mm 3 m/s 707 mmHg 77%
    20:00 0°C° 0 mm 3 m/s 708 mmHg 80%
    21:00 -1°C° 0 mm 3 m/s 708 mmHg 83%
    22:00 -1°C° 0 mm 3 m/s 709 mmHg 86%
    23:00 -1°C° 0 mm 3 m/s 710 mmHg 88%

    Amanhã, 26 Março, Terça-feira

    Tempo Temperatura Precipitação Vento Pressão Humidade
    00:00 -1°C° 0 mm 3 m/s 710 mmHg 89%
    01:00 -2°C° 0 mm 3 m/s 711 mmHg 90%
    02:00 -1°C° 0 mm 3 m/s 711 mmHg 90%
    03:00 -1°C° 0 mm 3 m/s 711 mmHg 90%
    04:00 -1°C° 0 mm 3 m/s 712 mmHg 91%
    05:00 -1°C° 0 mm 3 m/s 712 mmHg 89%
    06:00 -1°C° 0 mm 3 m/s 712 mmHg 87%
    07:00 -1°C° 0 mm 2 m/s 713 mmHg 85%
    08:00 +1°C° 0 mm 3 m/s 713 mmHg 76%
    09:00 +1°C° 0 mm 4 m/s 713 mmHg 68%
    10:00 +4°C° 0 mm 4 m/s 714 mmHg 59%
    11:00 +3°C° 0 mm 5 m/s 713 mmHg 58%
    12:00 +3°C° 0 mm 6 m/s 713 mmHg 57%
    13:00 +4°C° 0 mm 7 m/s 713 mmHg 56%
    14:00 +3°C° 0 mm 7 m/s 713 mmHg 59%
    15:00 +1°C° 0 mm 8 m/s 713 mmHg 62%
    16:00 +1°C° 0 mm 8 m/s 713 mmHg 65%
    17:00 0°C° 0 mm 7 m/s 713 mmHg 68%
    18:00 0°C° 0 mm 5 m/s 713 mmHg 72%
    19:00 -1°C° 0 mm 4 m/s 713 mmHg 76%
    20:00 -1°C° 0 mm 4 m/s 714 mmHg 79%
    21:00 -1°C° 0 mm 4 m/s 714 mmHg 81%
    22:00 -2°C° 0 mm 4 m/s 714 mmHg 83%
    23:00 -1°C° 0 mm 3 m/s 715 mmHg 85%

    Depois de amanhã, 27 Março, Quarta-feira

    Tempo Temperatura Precipitação Vento Pressão Humidade
    00:00 -1°C° 0 mm 2 m/s 715 mmHg 87%
    01:00 -2°C° 0 mm 2 m/s 715 mmHg 89%
    02:00 -2°C° 0 mm 2 m/s 715 mmHg 90%
    03:00 -2°C° 0 mm 2 m/s 715 mmHg 90%
    04:00 0°C° 0 mm 1 m/s 715 mmHg 91%
    05:00 -2°C° 0 mm 2 m/s 715 mmHg 89%
    06:00 -1°C° 0 mm 2 m/s 716 mmHg 87%
    07:00 -1°C° 0 mm 2 m/s 716 mmHg 86%
    08:00 +2°C° 0 mm 2 m/s 716 mmHg 80%
    09:00 +3°C° 0 mm 2 m/s 717 mmHg 74%
    10:00 +4°C° 0 mm 3 m/s 717 mmHg 68%
    11:00 +4°C° 0.1 mm 3 m/s 717 mmHg 68%
    12:00 +4°C° 0.1 mm 3 m/s 717 mmHg 69%
    13:00 +5°C° 0.1 mm 3 m/s 717 mmHg 70%
    14:00 +5°C° 0 mm 3 m/s 717 mmHg 70%
    15:00 +5°C° 0 mm 3 m/s 717 mmHg 70%
    16:00 +5°C° 0 mm 4 m/s 717 mmHg 69%
    17:00 +4°C° 0 mm 3 m/s 717 mmHg 74%
    18:00 +5°C° 0 mm 2 m/s 717 mmHg 79%
    19:00 +5°C° 0 mm 1 m/s 717 mmHg 85%
    20:00 +5°C° 0 mm 1 m/s 717 mmHg 87%
    21:00 +4°C° 0 mm 1 m/s 717 mmHg 88%
    22:00 +4°C° 0 mm 1 m/s 717 mmHg 90%
    23:00 +4°C° 0 mm 1 m/s 718 mmHg 91%

    28 Março, Quinta-feira

    Tempo Temperatura Precipitação Vento Pressão Humidade
    00:00 +4°C° 0 mm 1 m/s 718 mmHg 92%
    01:00 +4°C° 0 mm 1 m/s 718 mmHg 93%
    02:00 +4°C° 0 mm 1 m/s 718 mmHg 92%
    03:00 +4°C° 0 mm 1 m/s 718 mmHg 92%
    04:00 +4°C° 0 mm 1 m/s 717 mmHg 92%
    05:00 +4°C° 0 mm 1 m/s 718 mmHg 92%
    06:00 +4°C° 0 mm 1 m/s 718 mmHg 91%
    07:00 +5°C° 0 mm 1 m/s 718 mmHg 91%
    08:00 +4°C° 0.1 mm 2 m/s 718 mmHg 86%
    09:00 +5°C° 0.1 mm 2 m/s 719 mmHg 82%
    10:00 +6°C° 0.1 mm 2 m/s 719 mmHg 77%
    11:00 +7°C° 0.1 mm 3 m/s 719 mmHg 74%
    12:00 +7°C° 0.1 mm 3 m/s 720 mmHg 71%
    13:00 +6°C° 0.1 mm 4 m/s 720 mmHg 68%
    14:00 +6°C° 0.1 mm 4 m/s 720 mmHg 68%
    15:00 +6°C° 0.1 mm 4 m/s 720 mmHg 68%
    16:00 +6°C° 0.1 mm 4 m/s 719 mmHg 68%
    17:00 +5°C° 0 mm 3 m/s 720 mmHg 75%
    18:00 +4°C° 0 mm 3 m/s 720 mmHg 81%
    19:00 +3°C° 0 mm 2 m/s 720 mmHg 88%
    20:00 +3°C° 0 mm 2 m/s 720 mmHg 89%
    21:00 +2°C° 0 mm 2 m/s 721 mmHg 89%
    22:00 +3°C° 0 mm 1 m/s 721 mmHg 90%
    23:00 +3°C° 0 mm 1 m/s 721 mmHg 91%

    29 Março, Sexta-feira

    Tempo Temperatura Precipitação Vento Pressão Humidade
    00:00 +2°C° 0 mm 1 m/s 721 mmHg 91%
    01:00 +2°C° 0 mm 1 m/s 721 mmHg 91%
    02:00 +2°C° 0 mm 1 m/s 721 mmHg 91%
    03:00 +2°C° 0 mm 1 m/s 721 mmHg 91%
    04:00 +2°C° 0 mm 1 m/s 721 mmHg 92%
    05:00 +2°C° 0 mm 1 m/s 721 mmHg 90%
    06:00 +3°C° 0 mm 1 m/s 722 mmHg 88%
    07:00 +3°C° 0 mm 0 m/s 722 mmHg 86%
    08:00 +5°C° 0 mm 1 m/s 722 mmHg 78%
    09:00 +7°C° 0 mm 1 m/s 722 mmHg 70%
    10:00 +9°C° 0 mm 1 m/s 723 mmHg 62%
    11:00 +10°C° 0 mm 1 m/s 722 mmHg 57%
    12:00 +11°C° 0 mm 1 m/s 722 mmHg 53%
    13:00 +12°C° 0 mm 1 m/s 722 mmHg 49%
    14:00 +12°C° 0 mm 1 m/s 722 mmHg 48%
    15:00 +12°C° 0 mm 1 m/s 721 mmHg 47%
    16:00 +12°C° 0 mm 1 m/s 721 mmHg 46%
    17:00 +11°C° 0 mm 1 m/s 720 mmHg 53%
    18:00 +9°C° 0 mm 1 m/s 720 mmHg 59%
    19:00 +6°C° 0 mm 0 m/s 720 mmHg 66%
    20:00 +6°C° 0 mm 0 m/s 720 mmHg 67%
    21:00 +5°C° 0 mm 0 m/s 720 mmHg 69%
    22:00 +6°C° 0 mm 1 m/s 720 mmHg 71%
    23:00 +6°C° 0 mm 1 m/s 719 mmHg 72%

    30 Março, Sábado

    Tempo Temperatura Precipitação Vento Pressão Humidade
    00:00 +5°C° 0 mm 1 m/s 719 mmHg 73%
    01:00 +5°C° 0 mm 1 m/s 719 mmHg 74%
    02:00 +5°C° 0 mm 1 m/s 719 mmHg 74%
    03:00 +5°C° 0 mm 1 m/s 719 mmHg 75%
    04:00 +4°C° 0 mm 1 m/s 719 mmHg 76%
    05:00 +5°C° 0 mm 1 m/s 719 mmHg 75%
    06:00 +6°C° 0 mm 1 m/s 719 mmHg 74%
    07:00 +6°C° 0 mm 1 m/s 719 mmHg 73%
    08:00 +8°C° 0 mm 1 m/s 719 mmHg 65%
    09:00 +10°C° 0 mm 1 m/s 719 mmHg 58%
    10:00 +12°C° 0 mm 1 m/s 719 mmHg 51%
    11:00 +13°C° 0 mm 1 m/s 718 mmHg 47%
    12:00 +14°C° 0 mm 2 m/s 718 mmHg 44%
    13:00 +15°C° 0 mm 2 m/s 717 mmHg 40%
    14:00 +15°C° 0 mm 2 m/s 716 mmHg 41%
    15:00 +14°C° 0 mm 3 m/s 716 mmHg 42%
    16:00 +14°C° 0 mm 3 m/s 715 mmHg 42%
    17:00 +12°C° 0 mm 3 m/s 714 mmHg 49%
    18:00 +10°C° 0 mm 2 m/s 714 mmHg 56%
    19:00 +8°C° 0 mm 2 m/s 713 mmHg 63%
    20:00 +8°C° 0 mm 2 m/s 713 mmHg 64%
    21:00 +7°C° 0 mm 2 m/s 712 mmHg 65%
    22:00 +7°C° 0 mm 2 m/s 712 mmHg 66%
    23:00 +6°C° 0 mm 2 m/s 712 mmHg 67%
    Mostrar mais